パンスターズ彗星

C/2011 L4 ( PanSTARRS )

English version
Home page
Updated on February 8, 2021

---------------------------------------------------------------------

・ プロフィール

発見日 2011年6月6日
発見光度 19.4等
発見者 Pan-STARRS 1 telescope (Haleakala)

・ 写真集

・ 軌道要素

Epoch 2013 Mar. 9.0 TT = JDT 2456360.5
T 2013 Mar. 10.16991 TT                                 MPCW
q   0.3015446            (2000.0)            P               Q
z  -0.0001077      Peri.  333.65163     +0.41005883     +0.10048669
 +/-0.0000001      Node    65.66585     +0.90783462     +0.05058136
e   1.0000325      Incl.   84.20822     -0.08768158     +0.99365183
From 5035 observations 2011 May 21-2014 Aug. 24, mean residual 0".5.

・ 星図

・ 光度変化

        m1 = -1.8 + 5 logΔ + 18.0 log r  [    ,-365]  (              〜2012年 3月10日)
        m1 =  4.0 + 5 logΔ + 10.0 log r  [-365,-120]  (2012年 3月10日〜2012年11月10日)
        m1 =  5.0 + 5 logΔ +  7.5 log r  [-120,  40]  (2012年11月10日〜2013年 4月19日)
        m1 =  5.0 + 5 logΔ + 10.0 log r  [  40, 128]  (2013年 4月19日〜2013年 7月16日)
        m1 =  3.0 + 5 logΔ + 15.0 log r  [ 128,    ]  (2013年 7月16日〜              )

        ※ 灰色の曲線は、m1 = 4.0 + 5 logΔ + 10.0 log r の光度曲線です。

---------------------------------------------------------------------

軌道要素はM.P.E.C. 2015-J41に掲載されたものです。
星図はステラナビゲータ Ver.8 (アストロアーツ) で作成したものです。
光度グラフはComet for Windowsで作成したものです。

---------------------------------------------------------------------

Copyright(C) Seiichi Yoshida (comet@aerith.net). All rights reserved.